World > North America > United States > Georgia

Ashburn, Georgia Regional Weather

Lat: 31.71N, Lon: 83.65W
Wx Zone: GAZ128Web Search

Ads allow us to feed your daily addiction for the world's greatest weather information. We're determined to offer quality sponsors, in the least annoying way possible.

Feedback


°F Click to change Ashburn hourly weather to Imperial units.Click to change Ashburn hourly weather to Metric units. °C
Ashburn Weather Map
UTC Time: 5/15/2021, 20:52
Your Time:

Ashburn, GA Regional Weather

Expires:202105152100;;166799
ASUS42 KFFC 152010
RWRGA 
WEATHER ROUNDUP FOR GEORGIA
NATIONAL WEATHER SERVICE PEACHTREE CITY GA
400 PM EDT SAT MAY 15 2021

NOTE: "FAIR" INDICATES FEW OR NO CLOUDS BELOW 12,000 FEET WITH NO
SIGNIFICANT WEATHER AND/OR OBSTRUCTIONS TO VISIBILITY. 

* = USE WITH CAUTION. THE STATIONS MARKED WITH AN ASTERISK MAY NOT
REPORT WEATHER SUCH AS PRECIPITATION, FOG, OR THUNDER AND ARE NOT 
QUALITY CONTROLLED BY NWS.

THE REMARK "TC" DENOTES TEMPERATURE READING IN DEGREES CELSIUS.


GAZ099>101-110>166-152100-
SOUTH GEORGIA
  
CITY           SKY/WX    TMP DP  RH WIND       PRES   REMARKS
SAVANNAH       PTSUNNY   78  41  26 NE10      30.22F                  
VALDOSTA       MOSUNNY   81  43  26 E9        30.20F                  
ALMA           SUNNY     79  42  26 MISG      30.20F                  
ST SIMONS      MOSUNNY   76  50  40 E12       30.23F                  
ALBANY         SUNNY     82  43  25 E14       30.22F                  
HUNTER AFB     SUNNY     76  49  37 SE9       30.19F                  
BRUNSWICK      MOSUNNY   76  38  25 E18G24    30.23F                  

  
CITY           SKY/WX    TMP DP  RH WIND       PRES   REMARKS
BAINBRIDGE*    SUNNY     81  43  26 E10G16    30.19F                  
MOULTRIE*      SUNNY     79  41  25 E6        30.21F                  
VIDALIA*       MOSUNNY   81  45  28 E9        30.22F                  
WAYCROSS*      SUNNY     79  37  22 NE8       30.20F                  
DOUGLAS*       SUNNY     79  40  25 E8        30.22F                  
$$
  

SKY/WX - Weather  TMP - Temperature  DP - Dew Point  RH - Relative Humidity
WIND - Wind Direction/Speed PRES - Barometric Pressure VSB - Visibility
WCI - Wind Chill Index E13G22 Wind - East Wind 13 mph/Gusts of 22 mph